Location: �clusier
(49.9361°N, 2.7869°E)
Time: 08:50:15
(UTC+00:00)

SL-8 R/B - Pass Details

Date: 16 June 2021
Orbit: 656 x 667 km, 48.4° (Epoch: 02 August)

Event Time Altitude Azimuth Distance (km) Brightness Sun altitude
Rises 21:30:57 0° 280° (W) 2,993 7.7 -10.5°
Reaches altitude 10° 21:33:21 10° 275° (W) 2,078 6.8 -10.7°
Maximum altitude 21:38:00 52° 200° (SSW) 819 3.9 -11.1°
Enters shadow 21:41:59 14° 127° (SE) 1,829 5.4 -11.4°
